| time (UTC) | temp F | wind direction | speed MPH | gust MPH | rain 1hr in | rain 24hr in | rain mn in | humidity % | barometer mb |
| 20260504223039 | 76 | 136 | 13.0 | 22.0 | 0.00 | 0.00 | 0.00 | 29 | 948.0 |
| 20260504221539 | 76 | 10.0 | 18.0 | 0.00 | 0.00 | 0.00 | 28 | 948.0 | |
| 20260504220037 | 76 | 13.0 | 22.0 | 0.00 | 0.00 | 0.00 | 29 | 948.4 | |
| 20260504214536 | 76 | 14.0 | 21.0 | 0.00 | 0.00 | 0.00 | 27 | 948.5 | |
| 20260504213035 | 76 | 13.0 | 22.0 | 0.00 | 0.00 | 0.00 | 28 | 948.6 | |
| 20260504211535 | 76 | 13.0 | 20.0 | 0.00 | 0.00 | 0.00 | 26 | 948.8 | |
| 20260504210046 | 76 | 11.0 | 21.0 | 0.00 | 0.00 | 0.00 | 27 | 948.9 | |
| 20260504204551 | 76 | 13.0 | 21.0 | 0.00 | 0.00 | 0.00 | 28 | 949.1 | |
| 20260504203034 | 76 | 13.0 | 22.0 | 0.00 | 0.00 | 0.00 | 27 | 949.1 | |
| 20260504201532 | 76 | 15.0 | 23.0 | 0.00 | 0.00 | 0.00 | 28 | 949.1 | |
| 20260504200031 | 75 | 15.0 | 22.0 | 0.00 | 0.00 | 0.00 | 28 | 949.2 | |
| 20260504194531 | 75 | 12.0 | 23.0 | 0.00 | 0.00 | 0.00 | 29 | 949.4 | |
| 20260504193030 | 74 | 165 | 13.0 | 23.0 | 0.00 | 0.00 | 0.00 | 30 | 949.4 |
| 20260504191531 | 74 | 178 | 13.0 | 21.0 | 0.00 | 0.00 | 0.00 | 30 | 949.5 |
| 20260504190028 | 73 | 182 | 13.0 | 24.0 | 0.00 | 0.00 | 0.00 | 31 | 949.7 |
| 20260504184528 | 73 | 221 | 11.0 | 21.0 | 0.00 | 0.00 | 0.00 | 32 | 949.6 |
| 20260504183027 | 72 | 186 | 12.0 | 23.0 | 0.00 | 0.00 | 0.00 | 33 | 949.8 |
| 20260504181527 | 73 | 200 | 10.0 | 23.0 | 0.00 | 0.00 | 0.00 | 33 | 950.0 |
| 20260504180025 | 73 | 197 | 13.0 | 22.0 | 0.00 | 0.00 | 0.00 | 33 | 949.8 |
| 20260504174524 | 72 | 10.0 | 19.0 | 0.00 | 0.00 | 0.00 | 33 | 949.9 | |
| 20260504173023 | 72 | 13.0 | 21.0 | 0.00 | 0.00 | 0.00 | 33 | 949.5 | |
| 20260504171522 | 72 | 12.0 | 21.0 | 0.00 | 0.00 | 0.00 | 32 | 949.5 | |
| 20260504081509 | 79 | 221 | 13.0 | 21.0 | 0.00 | 0.00 | 0.00 | 25 | 946.2 |
| 20260504044543 | 85 | 153 | 10.0 | 24.0 | 0.00 | 0.00 | 0.00 | 19 | 944.6 |
| 20260504043048 | 86 | 209 | 10.0 | 20.0 | 0.00 | 0.00 | 0.00 | 19 | 944.5 |
| 20260504041545 | 86 | 195 | 14.0 | 23.0 | 0.00 | 0.00 | 0.00 | 19 | 944.4 |
| 20260504040045 | 86 | 164 | 11.0 | 21.0 | 0.00 | 0.00 | 0.00 | 19 | 944.3 |
| 20260504034550 | 87 | 181 | 9.0 | 19.0 | 0.00 | 0.00 | 0.00 | 19 | 944.1 |
| 20260504033040 | 87 | 171 | 12.0 | 26.0 | 0.00 | 0.00 | 0.00 | 19 | 943.9 |
| 20260504031543 | 87 | 146 | 13.0 | 22.0 | 0.00 | 0.00 | 0.00 | 20 | 943.5 |
| 20260504030039 | 88 | 174 | 10.0 | 19.0 | 0.00 | 0.00 | 0.00 | 20 | 943.3 |
| 20260504024546 | 88 | 198 | 8.0 | 19.0 | 0.00 | 0.00 | 0.00 | 19 | 943.3 |
| 20260504023038 | 88 | 188 | 9.0 | 21.0 | 0.00 | 0.00 | 0.00 | 18 | 943.2 |
| 20260504021540 | 89 | 179 | 11.0 | 22.0 | 0.00 | 0.00 | 0.00 | 17 | 943.1 |
| 20260504020041 | 90 | 153 | 13.0 | 25.0 | 0.00 | 0.00 | 0.00 | 16 | 943.1 |
| 20260504014538 | 90 | 155 | 13.0 | 23.0 | 0.00 | 0.00 | 0.00 | 16 | 943.1 |
| 20260504013046 | 91 | 163 | 13.0 | 22.0 | 0.00 | 0.00 | 0.00 | 15 | 943.3 |
| 20260504011534 | 91 | 162 | 14.0 | 22.0 | 0.00 | 0.00 | 0.00 | 14 | 943.2 |
| 20260504010037 | 91 | 180 | 11.0 | 22.0 | 0.00 | 0.00 | 0.00 | 14 | 943.3 |
| 20260504004532 | 92 | 10.0 | 27.0 | 0.00 | 0.00 | 0.00 | 14 | 943.5 | |
| 20260504003032 | 92 | 221 | 14.0 | 28.0 | 0.00 | 0.00 | 0.00 | 13 | 943.4 |
| 20260504001536 | 93 | 172 | 16.0 | 26.0 | 0.00 | 0.00 | 0.00 | 13 | 943.6 |
| 20260504000030 | 93 | 229 | 15.0 | 25.0 | 0.00 | 0.00 | 0.00 | 12 | 943.6 |
| 20260503234529 | 93 | 169 | 15.0 | 24.0 | 0.00 | 0.00 | 0.00 | 12 | 943.3 |
| 20260503233028 | 93 | 214 | 11.0 | 20.0 | 0.00 | 0.00 | 0.00 | 12 | 943.7 |
| 20260503231528 | 93 | 207 | 15.0 | 26.0 | 0.00 | 0.00 | 0.00 | 12 | 943.7 |
| 20260503230037 | 93 | 144 | 18.0 | 25.0 | 0.00 | 0.00 | 0.00 | 12 | 943.7 |
| 20260503224524 | 93 | 173 | 15.0 | 24.0 | 0.00 | 0.00 | 0.00 | 11 | 943.9 |